Time,TemperatureF,DewpointF,PressureIn,WindDirection,WindDirectionDegrees,WindSpeedMPH,WindSpeedGustMPH,Humidity,HourlyPrecipIn,Conditions,Clouds,dailyrainin,SoftwareType,DateUTC
2013-01-03 00:04:00,11.8,3.6,30.06,SW,225,2.2,-999.0,69,-99.99,,,0.00,Acu-Link.com,2013-01-03 05:04:00,
2013-01-03 00:19:00,11.3,2.8,30.05,NW,315,5.3,-999.0,68,-99.99,,,0.00,Acu-Link.com,2013-01-03 05:19:00,
2013-01-03 00:34:00,10.9,2.4,30.07,NNE,22,5.3,-999.0,68,-99.99,,,0.00,Acu-Link.com,2013-01-03 05:34:00,
2013-01-03 00:49:00,10.6,2.2,30.07,NNW,337,4.7,-999.0,68,-99.99,,,0.00,Acu-Link.com,2013-01-03 05:49:00,
2013-01-03 01:04:00,10.2,1.8,30.07,NNE,22,2.7,-999.0,68,-99.99,,,0.00,Acu-Link.com,2013-01-03 06:04:00,
2013-01-03 01:19:00,10.0,1.9,30.08,SW,225,0.0,-999.0,69,-99.99,,,0.00,Acu-Link.com,2013-01-03 06:19:00,
2013-01-03 01:34:00,9.5,1.4,30.08,NNW,337,3.2,-999.0,69,-99.99,,,0.00,Acu-Link.com,2013-01-03 06:34:00,
2013-01-03 01:49:00,9.1,1.0,30.09,NNW,337,3.7,-999.0,69,-99.99,,,0.00,Acu-Link.com,2013-01-03 06:49:00,
2013-01-03 02:05:00,8.8,0.7,30.09,NW,315,1.1,-999.0,69,-99.99,,,0.00,Acu-Link.com,2013-01-03 07:05:00,
2013-01-03 02:20:00,8.6,0.2,30.09,ESE,112,0.0,-999.0,68,-99.99,,,0.00,Acu-Link.com,2013-01-03 07:20:00,
2013-01-03 02:35:00,8.6,-0.1,30.09,NNE,22,1.1,-999.0,67,-99.99,,,0.00,Acu-Link.com,2013-01-03 07:35:00,
2013-01-03 02:50:00,7.9,-0.7,30.09,NW,315,3.2,-999.0,67,-99.99,,,0.00,Acu-Link.com,2013-01-03 07:50:00,
2013-01-03 03:05:00,7.5,-0.8,30.09,NNW,337,4.7,-999.0,68,-99.99,,,0.00,Acu-Link.com,2013-01-03 08:05:00,
2013-01-03 03:20:00,7.2,-1.4,30.09,NW,315,4.2,-999.0,67,-99.99,,,0.00,Acu-Link.com,2013-01-03 08:20:00,
2013-01-03 03:35:00,6.3,-2.3,30.09,NNW,337,0.0,-999.0,67,-99.99,,,0.00,Acu-Link.com,2013-01-03 08:35:00,
2013-01-03 03:50:00,5.7,-2.5,30.09,WNW,292,1.7,-999.0,68,-99.99,,,0.00,Acu-Link.com,2013-01-03 08:50:00,
2013-01-03 04:09:00,5.2,-3.0,30.08,North,0,3.7,-999.0,68,-99.99,,,0.00,Acu-Link.com,2013-01-03 09:09:00,
2013-01-03 04:24:00,4.1,-3.5,30.08,ESE,112,0.0,-999.0,70,-99.99,,,0.00,Acu-Link.com,2013-01-03 09:24:00,
2013-01-03 04:39:00,3.9,-3.7,30.07,ENE,67,1.7,-999.0,70,-99.99,,,0.00,Acu-Link.com,2013-01-03 09:39:00,
2013-01-03 04:54:00,3.7,-3.3,30.08,NNW,337,2.7,-999.0,72,-99.99,,,0.00,Acu-Link.com,2013-01-03 09:54:00,
2013-01-03 05:10:00,3.9,-3.1,30.08,NNW,337,3.2,-999.0,72,-99.99,,,0.00,Acu-Link.com,2013-01-03 10:10:00,
2013-01-03 05:25:00,3.6,-3.7,30.09,SSW,202,0.0,-999.0,71,-99.99,,,0.00,Acu-Link.com,2013-01-03 10:25:00,
2013-01-03 05:40:00,2.3,-4.3,30.09,NNW,337,1.7,-999.0,73,-99.99,,,0.00,Acu-Link.com,2013-01-03 10:40:00,
2013-01-03 05:56:00,3.4,-4.4,30.08,NNW,337,3.7,-999.0,69,-99.99,,,0.00,Acu-Link.com,2013-01-03 10:56:00,
2013-01-03 06:11:00,3.0,-5.1,30.08,SSW,202,1.7,-999.0,68,-99.99,,,0.00,Acu-Link.com,2013-01-03 11:11:00,
2013-01-03 06:26:00,2.3,-5.2,30.10,West,270,0.0,-999.0,70,-99.99,,,0.00,Acu-Link.com,2013-01-03 11:26:00,
2013-01-03 06:41:00,1.8,-5.4,30.10,NNW,337,0.0,-999.0,71,-99.99,,,0.00,Acu-Link.com,2013-01-03 11:41:00,
2013-01-03 06:56:00,1.4,-5.8,30.10,NNE,22,1.7,-999.0,71,-99.99,,,0.00,Acu-Link.com,2013-01-03 11:56:00,
2013-01-03 07:11:00,1.6,-6.2,30.11,West,270,1.1,-999.0,69,-99.99,,,0.00,Acu-Link.com,2013-01-03 12:11:00,
2013-01-03 07:26:00,1.2,-6.9,30.11,NNW,337,0.0,-999.0,68,-99.99,,,0.00,Acu-Link.com,2013-01-03 12:26:00,
2013-01-03 07:41:00,0.9,-6.6,30.11,NW,315,0.0,-999.0,70,-99.99,,,0.00,Acu-Link.com,2013-01-03 12:41:00,
2013-01-03 07:56:00,1.4,-5.8,30.10,North,0,0.0,-999.0,71,-99.99,,,0.00,Acu-Link.com,2013-01-03 12:56:00,
2013-01-03 08:12:00,4.1,-3.2,30.10,ENE,67,0.0,-999.0,71,-99.99,,,0.00,Acu-Link.com,2013-01-03 13:12:00,
2013-01-03 08:27:00,7.3,-2.0,30.11,NW,315,1.7,-999.0,65,-99.99,,,0.00,Acu-Link.com,2013-01-03 13:27:00,
2013-01-03 08:42:00,8.2,-2.1,30.10,ESE,112,3.2,-999.0,62,-99.99,,,0.00,Acu-Link.com,2013-01-03 13:42:00,
2013-01-03 08:58:00,10.8,-0.3,30.09,SW,225,3.2,-999.0,60,-99.99,,,0.00,Acu-Link.com,2013-01-03 13:58:00,
2013-01-03 09:13:00,12.9,-0.6,30.09,NNW,337,4.7,-999.0,54,-99.99,,,0.00,Acu-Link.com,2013-01-03 14:13:00,
2013-01-03 09:28:00,12.7,-1.6,30.10,NNW,337,3.2,-999.0,52,-99.99,,,0.00,Acu-Link.com,2013-01-03 14:28:00,
2013-01-03 09:43:00,15.6,-0.6,30.11,West,270,4.2,-999.0,48,-99.99,,,0.00,Acu-Link.com,2013-01-03 14:43:00,
2013-01-03 09:58:00,15.8,-0.8,30.10,WSW,247,3.2,-999.0,47,-99.99,,,0.00,Acu-Link.com,2013-01-03 14:58:00,
2013-01-03 10:13:00,16.5,-1.1,30.10,NNW,337,2.7,-999.0,45,-99.99,,,0.00,Acu-Link.com,2013-01-03 15:13:00,
2013-01-03 10:28:00,17.6,-0.6,30.09,WNW,292,0.0,-999.0,44,-99.99,,,0.00,Acu-Link.com,2013-01-03 15:28:00,
2013-01-03 10:44:00,18.0,-1.7,30.09,NNW,337,5.3,-999.0,41,-99.99,,,0.00,Acu-Link.com,2013-01-03 15:44:00,
2013-01-03 10:59:00,19.6,-1.3,30.09,North,0,1.7,-999.0,39,-99.99,,,0.00,Acu-Link.com,2013-01-03 15:59:00,
2013-01-03 11:14:00,20.1,-2.5,30.08,NW,315,3.7,-999.0,36,-99.99,,,0.00,Acu-Link.com,2013-01-03 16:14:00,
2013-01-03 11:29:00,19.4,-3.1,30.08,NW,315,4.7,-999.0,36,-99.99,,,0.00,Acu-Link.com,2013-01-03 16:29:00,
2013-01-03 11:44:00,19.8,-3.4,30.07,NW,315,6.3,-999.0,35,-99.99,,,0.00,Acu-Link.com,2013-01-03 16:44:00,
2013-01-03 11:59:00,19.6,-4.2,30.06,SW,225,1.7,-999.0,34,-99.99,,,0.00,Acu-Link.com,2013-01-03 16:59:00,
2013-01-03 12:14:00,20.5,-3.4,30.05,ENE,67,3.7,-999.0,34,-99.99,,,0.00,Acu-Link.com,2013-01-03 17:14:00,
2013-01-03 12:29:00,21.2,-3.4,30.05,WSW,247,3.2,-999.0,33,-99.99,,,0.00,Acu-Link.com,2013-01-03 17:29:00,
2013-01-03 12:44:00,21.9,-2.1,30.04,NNW,337,2.2,-999.0,34,-99.99,,,0.00,Acu-Link.com,2013-01-03 17:44:00,
2013-01-03 13:00:00,21.9,-3.4,30.03,North,0,3.2,-999.0,32,-99.99,,,0.00,Acu-Link.com,2013-01-03 18:00:00,
2013-01-03 13:15:00,22.1,-1.9,30.03,WNW,292,4.7,-999.0,34,-99.99,,,0.00,Acu-Link.com,2013-01-03 18:15:00,
2013-01-03 13:30:00,23.0,0.7,30.02,NW,315,2.2,-999.0,37,-99.99,,,0.00,Acu-Link.com,2013-01-03 18:30:00,
2013-01-03 13:45:00,23.0,2.3,30.02,NW,315,3.7,-999.0,40,-99.99,,,0.00,Acu-Link.com,2013-01-03 18:45:00,
2013-01-03 14:00:00,22.6,3.5,30.02,WNW,292,2.2,-999.0,43,-99.99,,,0.00,Acu-Link.com,2013-01-03 19:00:00,
2013-01-03 14:15:00,23.0,5.3,30.01,NW,315,4.7,-999.0,46,-99.99,,,0.00,Acu-Link.com,2013-01-03 19:15:00,
2013-01-03 15:00:00,23.2,7.4,30.02,South,180,0.0,-999.0,50,-99.99,,,0.00,Acu-Link.com,2013-01-03 20:00:00,
2013-01-03 15:16:00,23.0,7.6,30.02,West,270,1.7,-999.0,51,-99.99,,,0.00,Acu-Link.com,2013-01-03 20:16:00,
2013-01-03 15:31:00,22.6,7.7,30.01,NNW,337,0.0,-999.0,52,-99.99,,,0.00,Acu-Link.com,2013-01-03 20:31:00,
2013-01-03 15:46:00,22.3,7.8,30.02,North,0,0.0,-999.0,53,-99.99,,,0.00,Acu-Link.com,2013-01-03 20:46:00,
2013-01-03 16:01:00,21.6,7.6,30.01,NW,315,0.0,-999.0,54,-99.99,,,0.00,Acu-Link.com,2013-01-03 21:01:00,
2013-01-03 16:16:00,20.5,6.9,30.01,NNW,337,0.0,-999.0,55,-99.99,,,0.00,Acu-Link.com,2013-01-03 21:16:00,
2013-01-03 16:31:00,19.4,7.1,30.01,SW,225,0.0,-999.0,58,-99.99,,,0.00,Acu-Link.com,2013-01-03 21:31:00,
2013-01-03 16:46:00,18.3,7.1,30.00,SW,225,0.0,-999.0,61,-99.99,,,0.00,Acu-Link.com,2013-01-03 21:46:00,
2013-01-03 17:16:00,16.0,8.0,30.00,NNE,22,0.0,-999.0,70,-99.99,,,0.00,Acu-Link.com,2013-01-03 22:16:00,
2013-01-03 17:32:00,14.5,6.5,30.00,North,0,0.0,-999.0,70,-99.99,,,0.00,Acu-Link.com,2013-01-03 22:32:00,
2013-01-03 17:47:00,13.3,6.3,29.99,NNE,22,0.0,-999.0,73,-99.99,,,0.00,Acu-Link.com,2013-01-03 22:47:00,
2013-01-03 18:02:00,12.6,5.9,30.00,NW,315,0.0,-999.0,74,-99.99,,,0.00,Acu-Link.com,2013-01-03 23:02:00,
2013-01-03 18:17:00,12.2,6.1,29.99,NNW,337,0.0,-999.0,76,-99.99,,,0.00,Acu-Link.com,2013-01-03 23:17:00,
2013-01-03 18:32:00,12.0,6.2,29.99,NNE,22,0.0,-999.0,77,-99.99,,,0.00,Acu-Link.com,2013-01-03 23:32:00,
2013-01-03 18:47:00,11.5,5.7,30.00,NNW,337,0.0,-999.0,77,-99.99,,,0.00,Acu-Link.com,2013-01-03 23:47:00,
2013-01-03 19:02:00,10.9,5.1,30.01,NW,315,0.0,-999.0,77,-99.99,,,0.00,Acu-Link.com,2013-01-04 00:02:00,
2013-01-03 19:18:00,11.3,6.1,30.00,NNE,22,0.0,-999.0,79,-99.99,,,0.00,Acu-Link.com,2013-01-04 00:18:00,
2013-01-03 19:33:00,11.8,6.8,30.00,WSW,247,0.0,-999.0,80,-99.99,,,0.00,Acu-Link.com,2013-01-04 00:33:00,
2013-01-03 19:48:00,12.2,7.0,30.00,SSW,202,0.0,-999.0,79,-99.99,,,0.00,Acu-Link.com,2013-01-04 00:48:00,
2013-01-03 20:03:00,12.7,7.4,30.00,NNW,337,0.0,-999.0,79,-99.99,,,0.00,Acu-Link.com,2013-01-04 01:03:00,
2013-01-03 20:18:00,13.3,8.3,29.99,NNE,22,0.0,-999.0,80,-99.99,,,0.00,Acu-Link.com,2013-01-04 01:18:00,
2013-01-03 20:33:00,13.3,8.0,30.00,NNW,337,0.0,-999.0,79,-99.99,,,0.00,Acu-Link.com,2013-01-04 01:33:00,
2013-01-03 20:48:00,13.6,8.6,30.01,South,180,0.0,-999.0,80,-99.99,,,0.00,Acu-Link.com,2013-01-04 01:48:00,
2013-01-03 21:03:00,13.6,8.6,30.00,ENE,67,0.0,-999.0,80,-99.99,,,0.00,Acu-Link.com,2013-01-04 02:03:00,
2013-01-03 21:18:00,13.6,8.6,29.99,ENE,67,0.0,-999.0,80,-99.99,,,0.00,Acu-Link.com,2013-01-04 02:18:00,
2013-01-03 21:34:00,13.8,9.1,29.99,NW,315,0.0,-999.0,81,-99.99,,,0.00,Acu-Link.com,2013-01-04 02:34:00,
2013-01-03 21:49:00,13.6,8.9,29.99,WNW,292,0.0,-999.0,81,-99.99,,,0.00,Acu-Link.com,2013-01-04 02:49:00,
2013-01-03 22:04:00,13.8,9.1,30.00,SE,135,0.0,-999.0,81,-99.99,,,0.00,Acu-Link.com,2013-01-04 03:04:00,
2013-01-03 22:19:00,14.2,9.7,30.00,SW,225,0.0,-999.0,82,-99.99,,,0.00,Acu-Link.com,2013-01-04 03:19:00,
2013-01-03 22:34:00,14.5,10.0,29.99,West,270,0.0,-999.0,82,-99.99,,,0.00,Acu-Link.com,2013-01-04 03:34:00,
2013-01-03 22:49:00,14.2,9.7,29.99,NW,315,0.0,-999.0,82,-99.99,,,0.00,Acu-Link.com,2013-01-04 03:49:00,
2013-01-03 23:04:00,13.8,9.3,29.98,NW,315,0.0,-999.0,82,-99.99,,,0.00,Acu-Link.com,2013-01-04 04:04:00,
2013-01-03 23:19:00,13.5,9.3,29.97,WSW,247,0.0,-999.0,83,-99.99,,,0.00,Acu-Link.com,2013-01-04 04:19:00,
2013-01-03 23:34:00,13.1,8.9,29.97,NNW,337,0.0,-999.0,83,-99.99,,,0.00,Acu-Link.com,2013-01-04 04:34:00,
2013-01-03 23:50:00,12.4,8.8,29.96,NE,45,0.0,-999.0,85,-99.99,,,0.00,Acu-Link.com,2013-01-04 04:50:00,